www.pogodaiklimat.ru

Погода и климат >> Архив погоды >> Россия >> Ставропольский край >> Георгиевск


ПОГОДА в Георгиевске

  • Прогноз погоды в Георгиевске
  • Монитор погоды в Георгиевске

АРХИВ ПОГОДЫ в Георгиевске

Время (UTC), дата Ветер
(напр.,м/с)
 
Видим.   Явления Облачность Т
(С)
Тd
(С)
f
(%)
Тe
(С)
Тes
(С)
Комфортность P
(гПа)
Po
(гПа)
Тmin
(С)
Tmax
(С)
R
(мм)
R24
(мм)
S
(см)
03 14.06 штиль 0 20 км 10/0
[Cs]
+18.8 +13.9 73 +20 +21 1012.8 978.8 +18.5
06 14.06 СВ 1 20 км 10/0
[Ac trans Cc]
+25.7 +13.9 48 +28 +37 жарко 1013.4 980.1
09 14.06 СВ 1 20 км 10/0
[Ac trans Ci]
+29.5 +10.9 32 +30 +44 жарко 1013.1 980.2
12 14.06 В 2 20 км 8/3 1000 м
[Cu med, cong Ci]
+32.9 +6.0 19 +31 +39 жарко 1011.5 978.9
15 14.06 В 3 20 км 10/6 600 м
[Cb cap Ci]
+30.4 +11.9 32 +31 +31 жарко 1012.7 979.9 +33.7
18 14.06 ЮВ 1 20 км 8/0
[Ac As]
+22.8 +14.7 60 +26 +26 жарко 1014.1 980.5
21 14.06 штиль 0 20 км 5/0
[Ac trans]
+20.5 +15.4 73 +23 +23 комфорт 1014.7 980.8
00 15.06 ЮВ 1 20 км 8/0
[Ac trans]
+18.2 +15.4 84 +20 +20 1014.1 980.0
03 15.06 штиль 0 20 км 10/0
[Ac trans Ci]
+17.9 +15.3 85 +18 +19 1014.6 980.4 +17.3
06 15.06 В 2 20 км 3/3 600 м
[Cu med, cong]
+24.3 +16.0 60 +28 +36 душно 1013.7 980.3
09 15.06 ЮВ 2 20 км 4/0
[Ci]
+28.8 +12.5 37 +30 +48 жарко 1011.9 979.0
12 15.06 В 2 20 км ясно +31.1 +10.7 28 +31 +44 жарко 1009.7 977.1
15 15.06 В 1 20 км 8/0
[Ci]
+30.9 +11.6 31 +31 +33 жарко 1009.1 976.5 +32.0
18 15.06 штиль 0 20 км 4/0
[Ac trans]
+24.4 +16.1 60 +28 +28 душно 1010.5 977.2
21 15.06 ЮВ 2 20 км 5/0
[Ac trans Ci]
+21.7 +11.1 51 +24 +24 комфорт 1011.0 977.3
00 16.06 штиль 0 20 км ясно +18.0 +11.5 66 +18 +18 1010.6 976.5
03 16.06 штиль 0 20 км 3/0
[Ac trans]
+17.4 +12.5 73 +17 +19 1010.1 976.0 +16.1
06 16.06 штиль 0 20 км ясно +27.4 +10.9 36 +28 +44 жарко 1008.5 975.5
09 16.06 В 1 20 км 3/0
[Ac trans]
+31.0 +12.1 31 +31 +50 жарко 1007.8 975.3
12 16.06 ЮВ 1 20 км 10/4 1000 м
[Cb cap Ac As Ci]
+32.5 +7.2 21 +31 +35 жарко 1006.7 974.3
15 16.06 З 1 20 км 10/5 600 м
[Cb cap Ac As Ci]
+29.5 +12.5 35 +31 +31 жарко 1007.4 974.7 +34.6
18 16.06 З 1 20 км 4/0
[Ac trans]
+24.7 +11.9 45 +26 +26 жарко 1007.5 974.3
21 16.06 штиль 0 20 км ясно +20.3 +13.1 63 +22 +22 комфорт 1007.0 973.4
00 17.06 З 1 20 км 8/0
[Ac trans]
+20.2 +12.3 60 +23 +23 комфорт 1007.7 974.0
03 17.06 З 1 20 км 8/0
[Ac trans]
+21.8 +12.4 55 +24 +25 комфорт 1008.2 974.6 +19.4
06 17.06 С 1 20 км 6/0
[Ci]
+28.9 +13.5 39 +31 +43 жарко 1007.8 975.0
09 17.06 С 1 20 км 10/0
[Cc]
+32.3 +12.2 29 +33 +51 опасность
солнечного
удара
1007.0 974.6
12 17.06 штиль 0 20 км гроза без осадков 10/10 1000 м
[Cb cap]
+29.9 +12.1 33 +31 +31 жарко 1007.4 974.7
15 17.06 ЮЗ 3 20 км {гроза} 10/8 600 м
[Cb cap Ac trans]
+24.4 +12.2 46 +26 +26 жарко 1009.2 975.9 +33.5
18 17.06 В 1 20 км {гроза, ливн. осадки} 10/10 600 м
[Cb cap]
+22.0 +14.3 62 +25 +25 комфорт 1010.0 976.5
21 17.06 З 1 20 км 3/0
[Ac trans]
+20.6 +12.9 61 +24 +24 комфорт 1009.8 976.0
00 18.06 З 1 20 км 10/10 600 м
[Sc]
+17.9 +13.2 74 +19 +19 1010.2 976.1
03 18.06 З 1 20 км 6/6 1000 м
[Sc]
+18.4 +13.8 75 +20 +21 1011.3 977.3 +16.6 0.4
06 18.06 В 1 20 км 3/0
[Ac trans]
+27.0 +14.2 45 +29 +41 жарко 1010.4 977.4
09 18.06 СВ 1 20 км 3/3 600 м
[Cu hum]
+31.8 +10.8 28 +32 +48 жарко 1009.2 976.7
12 18.06 С 1 20 км 4/4 600 м
[Cu hum]
+33.5 +9.9 24 +33 +42 жарко 1007.7 975.3
15 18.06 штиль 0 20 км 8/8 1000 м
[Cu Sc]
+33.0 +8.6 22 +32 +32 жарко 1007.5 975.1 +33.9
18 18.06 штиль 0 20 км 4/4 1000 м
[Sc]
+27.2 +11.6 38 +28 +28 жарко 1008.7 975.7
21 18.06 З 1 20 км 3/0
[Ac trans]
+22.4 +13.0 55 +25 +25 комфорт 1009.1 975.6
00 19.06 штиль 0 20 км ясно +19.8 +12.1 61 +21 +21 комфорт 1009.4 975.6
03 19.06 З 1 20 км ясно +20.4 +12.8 62 +24 +25 комфорт 1009.7 976.0 +18.5
06 19.06 З 1 20 км ясно +30.3 +11.9 32 +31 +45 жарко 1008.3 975.7
09 19.06 В 1 20 км 4/4 600 м
[Cu hum]
+34.6 +7.9 19 +33 +46 жарко 1007.5 975.2
12 19.06 ЮВ 1 20 км 3/3 1000 м
[Cu hum]
+35.1 +4.1 14 +32 +43 жарко 1006.5 974.3
15 19.06 В 1 20 км 3/0
[Ac trans]
+34.5 +2.9 14 +32 +33 жарко 1006.0 973.8 +35.9
18 19.06 штиль 0 20 км ясно +26.7 +8.3 31 +27 +27 жарко 1007.8 974.7
21 19.06 штиль 0 20 км 3/0
[Ci fib]
+22.9 +10.6 46 +25 +25 комфорт 1008.0 974.5
00 20.06 З 1 20 км ясно +19.7 +11.1 58 +22 +22 комфорт 1008.3 974.5
03 20.06 штиль 0 20 км 3/0
[Ci fib]
+19.8 +11.4 58 +21 +23 комфорт 1009.2 975.3 +18.3
06 20.06 Ю 1 20 км 9/0
[Ac trans Cc]
+28.2 +11.0 34 +29 +38 жарко 1008.5 975.6
09 20.06 В 2 20 км 10/0
[Ac trans Ci]
+34.0 +6.5 18 +32 +43 жарко 1006.9 974.6
12 20.06 В 2 20 км 10/3 1000 м
[Cu hum Ac trans Ci]
+34.6 +5.6 17 +32 +37 жарко 1005.5 973.3
15 20.06 В 2 20 км 10/4 1000 м
[Sc Ac As]
+32.1 +6.6 20 +30 +31 жарко 1005.9 973.5 +35.9
18 20.06 штиль 0 20 км 8/0
[Ac As]
+26.6 +8.1 31 +27 +27 жарко 1007.2 974.1
21 20.06 штиль 0 20 км 3/0
[Ac trans]
+23.2 +12.9 52 +26 +26 жарко 1007.8 974.4

 

Местоположение метеостанции Георгиевск (Ставропольский край, Россия): широта 44.13 долгота 43.45 высота над уровнем моря 288 м.

В архиве по умолчанию представлена погода в Георгиевске за последнюю неделю. Архивные данные за месяц целиком и за предыдущие месяцы, начиная с января 2011 года, Вы можете получить, выбрав интересующий диапазон дат из раскрывающегося списка и нажав кнопку "Ввод!".


*Определитесь, кто Вы:
робот инопланетянин человек

Внимание! Время в таблицах - всемирное. Для получения местного времени необходимо прибавить поправку, которая равна 3 ч.

Смотрите также архив погоды в соседних городах и на ближайших метеорологических станциях:

Погода в Минеральных Водах (Ставропольский край, Россия) (30 км)
Погода в Зеленокумске (Ставропольский край, Россия) (48 км)
Погода в Кисловодске (Ставропольский край, Россия) (64 км)
Погода в Прохладный (Кабардино-Балкария, Россия) (64 км)
Погода в Нальчике (Кабардино-Балкария, Россия) (68 км)
Погода в Александровском (Ставропольский край, Россия) (75 км)
Погода в Шаджатмазе (Карачаево-Черкессия, Россия) (77 км)
Погода в Буденновске (Ставропольский край, Россия) (90 км)
Погода в Тырныаузе (Кабардино-Балкария, Россия) (94 км)
Погода в Моздоке (Северная Осетия, Россия) (107 км)

Пояснения к столбцам:

Ветер - указаны скорость ветра в м/с - средняя за 10 мин, порывы в срок и между сроками (в фигурных скобках) и направление, откуда дует ветер: С - северный, СВ - северо-восточный, В - восточный, ЮВ - юго-восточный, Ю - южный, ЮЗ - юго-западный, З - западный, СЗ - северо-западный.
Видимость - горизонтальная дальность видимости в метрах или километрах. При видимости от 1 до 10 км при отсутствии осадков обычно наблюдается дымка, при ухудшении видимости до 1 км и менее - туман. В сухую погоду видимость может ухудшаться дымом, пылью или мглою.
Явления - указаны атмосферные явления, наблюдавшиеся в срок или в последний час перед сроком; фигурными скобками обозначены явления, наблюдавшиеся между сроками (за 1-3 часа до срока); квадратными скобками обозначены град или гололедные отложения с указанием их диаметра в мм.
Облачность - указаны через наклонную черту общая и нижняя облачность в баллах и высота нижней границы облаков в метрах; квадратными скобками обозначены формы облаков: Ci - перистые, Cs - перисто-слоистые, Cc - перисто-кучевые, Ac - высококучевые, As - высокослоистые, Sc - слоисто-кучевые, Ns - слоисто-дождевые, Cu - кучевые, Cb - кучево-дождевые. Подробнее классификацию облаков см. в Атласе облаков (PDF).
T - Температура воздуха - температура, измеренная на высоте 2 м над землей.
Td - Температура точки росы - температура, при понижении до которой содержащийся в воздухе водяной пар достигнет насыщения.
f - Относительная влажность воздуха - влажноcть воздуха, измеренная на высоте 2 м над землей.
Te - Эффективная температура - температура, которую ощущает одетый по сезону человек в тени. Характеристика душности погоды. При расчете учитывается влияние влажности воздуха и скорости ветра на теплоощущения человека.
Tes - Эффективная температура на солнце - температура, которую ощущает человек, с поправкой на солнечный нагрев. Характеристика знойности погоды. Зависит от высоты солнца над горизонтом, облачности и скорости ветра. Ночью, в пасмурную погоду, а также при ветре 12 м/с и более поправка равна нулю.
P - Атмосферное давление - приведенное к уровню моря атмосферное давление.
Po - Атмосферное давление - измеренное на уровне метеостанции атмосферное давление.
Tmin - Минимальная температура - минимум температуры воздуха на высоте 2 м над землей.
Tmax - Максимальная температура - максимум температуры воздуха на высоте 2 м над землей.
R - Количество осадков - Количество выпавших осадков за период времени, мм. При наведении курсора мыши на число - период времени, за который выпало указанное количество осадков.
R24 - Количество осадков - Количество выпавших осадков за 24 часа, мм.
S - Снежный покров - Высота снежного покрова, см. При наведении курсора мыши на число - состояние снежного покрова и степень покрытия местности в баллах.